Index of /blog/images/assets/images.sixrevisions.com/2010/07

 NameLast modifiedSizeDescription

 Parent Directory   -  
 01-01_better_coder_l..>2018-12-20 13:02 20K 
 01-02_better_coder_s..>2018-12-20 13:02 36K 
 01-03_css_poster.jpg 2018-12-20 13:02 19K 
 01-04_poster_design_..>2018-12-20 13:02 20K 
 01-05_safari.jpg 2018-12-20 13:02 32K 
 01-06_twitter_failwh..>2018-12-20 13:02 25K 
 01-07_line_graph.jpg 2018-12-20 13:02 22K 
 02-01_amazing_icon_s..>2018-12-20 13:02 26K 
 02-02_amazing_icon_s..>2018-12-20 13:02 32K 
 02-03_amazing_icon_s..>2018-12-20 13:02 33K 
 02-04_amazing_icon_s..>2018-12-20 13:02 18K 
 02-05_amazing_icon_s..>2018-12-20 13:02 13K 
 02-06_amazing_icon_s..>2018-12-20 13:02 34K 
 02-07_amazing_icon_s..>2018-12-20 13:02 18K 
 02-08_amazing_icon_s..>2018-12-20 13:02 15K 
 02-09_amazing_icon_s..>2018-12-20 13:02 18K 
 02-10_amazing_icon_s..>2018-12-20 13:02 24K 
 02-11_amazing_icon_s..>2018-12-20 13:02 19K 
 02-12_amazing_icon_s..>2018-12-20 13:02 15K 
 02-13_amazing_icon_s..>2018-12-20 13:02 15K 
 02-14_amazing_icon_s..>2018-12-20 13:02 34K 
 02-15_amazing_icon_s..>2018-12-20 13:02 8.9K 
 02-16_amazing_icon_s..>2018-12-20 13:02 28K 
 02-17_amazing_icon_s..>2018-12-20 13:02 15K 
 02-18_amazing_icon_s..>2018-12-20 13:02 30K 
 02-19_amazing_icon_s..>2018-12-20 13:02 22K 
 02-20_amazing_icon_s..>2018-12-20 13:02 19K 
 02-21_amazing_icon_s..>2018-12-20 13:02 32K 
 02-22_amazing_icon_s..>2018-12-20 13:02 42K 
 02-23_amazing_icon_s..>2018-12-20 13:02 40K 
 02-24_amazing_icon_s..>2018-12-20 13:02 45K 
 02-25_amazing_icon_s..>2018-12-20 13:02 19K 
 02-26_amazing_icon_s..>2018-12-20 13:02 46K 
 02-27_amazing_icon_s..>2018-12-20 13:02 46K 
 02-28_amazing_icon_s..>2018-12-20 13:02 28K 
 02-29_amazing_icon_s..>2018-12-20 13:02 19K 
 02-30_amazing_icon_s..>2018-12-20 13:02 26K 
 02-31_amazing_icon_s..>2018-12-20 13:02 37K 
 02-32_amazing_icon_s..>2018-12-20 13:02 35K 
 02-33_amazing_icon_s..>2018-12-20 13:02 39K 
 02-34_amazing_icon_s..>2018-12-20 13:02 20K 
 02-35_amazing_icon_s..>2018-12-20 13:02 24K 
 02-36_amazing_icon_s..>2018-12-20 13:02 17K 
 02-37_amazing_icon_s..>2018-12-20 13:02 16K 
 02-38_amazing_icon_s..>2018-12-20 13:02 31K 
 02-39_amazing_icon_s..>2018-12-20 13:02 19K 
 02-40_amazing_icon_s..>2018-12-20 13:02 23K 
 02-41_amazing_icon_s..>2018-12-20 13:02 25K 
 02-42_amazing_icon_s..>2018-12-20 13:02 22K 
 02-43_amazing_icon_s..>2018-12-20 13:02 11K 
 02-44_amazing_icon_s..>2018-12-20 13:02 38K 
 02-45_amazing_icon_s..>2018-12-20 13:02 42K 
 02-46_amazing_icon_s..>2018-12-20 13:02 27K 
 02-47_amazing_icon_s..>2018-12-20 13:02 33K 
 02-48_amazing_icon_s..>2018-12-20 13:02 31K 
 02-49_amazing_icon_s..>2018-12-20 13:02 26K 
 02-50_amazing_icon_s..>2018-12-20 13:02 20K 
 02-51_amazing_icons_..>2018-12-20 13:02 17K 
 03-01_iphone_sdk_gui..>2018-12-20 13:02 26K 
 03-02_xcode.jpg 2018-12-20 13:02 19K 
 03-03_interface_buil..>2018-12-20 13:02 25K 
 04-01_web_files_ld_i..>2018-12-20 13:02 28K 
 04-02_mechanics_robo..>2018-12-20 13:02 9.4K 
 04-03_robotstxtorg.png 2018-12-20 13:02 25K 
 04-04_non_standard.png 2018-12-20 13:02 9.5K 
 04-05_how_favicos_wo..>2018-12-20 13:02 10K 
 04-06_favicon_tools.png2018-12-20 13:02 32K 
 04-07_apple_favicons..>2018-12-20 13:02 17K 
 04-08_sitemapxml.png 2018-12-20 13:02 7.6K 
 04-09_sitemapdotorg.png2018-12-20 13:02 18K 
 04-10_googlewebmaste..>2018-12-20 13:02 14K 
 04-11_mechanics_dubl..>2018-12-20 13:02 11K 
 04-12_rdf_example.png 2018-12-20 13:02 19K 
 04-13_rdfsite.jpg 2018-12-20 13:02 22K 
 04-14_opensearch_mec..>2018-12-20 13:02 6.8K 
 04-15_opensearch_sit..>2018-12-20 13:02 14K 
 04-16_opensearch_exa..>2018-12-20 13:02 7.6K 
 05-01_pure_grips.jpg 2018-12-20 13:02 34K 
 05-02_porche.jpg 2018-12-20 13:02 31K 
 05-03_b_q_diy.jpg 2018-12-20 13:02 44K 
 05-04_red_brick_heal..>2018-12-20 13:02 33K 
 05-05_carreras_con_f..>2019-01-21 13:11 46K 
 05-06_calaico_folia.jpg2019-01-21 13:11 49K 
 05-07_callaway_golf.jpg2018-12-20 13:02 25K 
 05-08_converse.jpg 2018-12-20 13:02 47K 
 05-09_puma.jpg 2018-12-20 13:02 29K 
 05-10_sunglass_hut.jpg 2018-12-20 13:02 40K 
 05-11_nettuts.jpg 2018-12-20 13:02 24K 
 05-12_tennessee_trai..>2018-12-20 13:02 42K 
 05-13_gateway.jpg 2018-12-20 13:02 27K 
 05-14_bern.jpg 2018-12-20 13:02 44K 
 05-15_ski_alpine.jpg 2019-01-21 13:11 43K 
 05-16_guitar_hero.jpg 2018-12-20 13:02 22K 
 05-17_mac_appstorm.jpg 2018-12-20 13:02 32K 
 05-18_noizi_kidz.jpg 2018-12-20 13:02 41K 
 05-19_audi.jpg 2018-12-20 13:02 21K 
 05-20_famous_cookies..>2018-12-20 13:02 26K 
 05-21_duchy.jpg 2018-12-20 13:02 43K 
 05-22_ea.jpg 2018-12-20 13:02 38K 
 05-23_bonefire_snow.jpg2018-12-20 13:02 26K 
 05-24_facebook.jpg 2018-12-20 13:02 31K 
 05-25_nick_ad.jpg 2018-12-20 13:02 13K 
 05-26_tennessee_vaca..>2019-01-21 13:11 56K 
 05-27_mtv_uk.jpg 2018-12-20 13:02 37K 
 05-28_dc_shoes.jpg 2018-12-20 13:02 40K 
 05-29_envato.jpg 2018-12-20 13:02 24K 
 05-30_tennessee_thea..>2019-01-21 13:11 41K 
 05-31_boden.jpg 2018-12-20 13:02 30K 
 05-32_white_house.jpg 2018-12-20 13:02 36K 
 05-33_navigant_consu..>2018-12-20 13:02 41K 
 05-34_officers_club.jpg2018-12-20 13:02 40K 
 05-35_fall_tennessee..>2018-12-20 13:02 39K 
 05-36_sony.jpg 2018-12-20 13:02 30K 
 05-37_project_vino.jpg 2018-12-20 13:02 30K 
 05-38_media_temple.jpg 2018-12-20 13:02 24K 
 05-39_mozilla.jpg 2018-12-20 13:02 36K 
 05-40_august.jpg 2018-12-20 13:02 33K 
 05-41_henleys_clothi..>2018-12-20 13:02 41K 
 05-42_digg.jpg 2018-12-20 13:02 25K 
 05-43_action_envelop..>2018-12-20 13:02 33K 
 05-44_very.jpg 2018-12-20 13:02 44K 
 05-45_incase.jpg 2018-12-20 13:02 18K 
 05-46_american_eagle..>2018-12-20 13:02 41K 
 05-47_mayflower.jpg 2018-12-20 13:02 34K 
 05-48_select_clothin..>2018-12-20 13:02 33K 
 05-49_bird_malaysia.jpg2019-01-21 13:11 44K 
 05-50_web_squeeze.jpg 2018-12-20 13:02 32K 
 05-51_dropdown_menus..>2018-12-20 13:02 30K 
 06-01_nextdayflyers_..>2018-12-20 13:02 49K 
 06-02_nextdayflyers_..>2018-12-20 13:02 29K 
 06-03_nextdayflyers_..>2018-12-20 13:02 40K 
 07-01_wireframe_show..>2018-12-20 13:02 46K 
 07-02_heart_directed..>2019-01-21 13:11 41K 
 07-03_siimple.jpg 2018-12-20 13:02 40K 
 07-04_gridbased.jpg 2018-12-20 13:02 44K 
 07-05_mephobox.jpg 2018-12-20 13:02 39K 
 07-06_html5gallery.jpg 2019-01-21 13:11 43K 
 07-07_typekitdesigng..>2018-12-20 13:02 37K 
 07-08_mobile_awesome..>2019-01-21 13:11 43K 
 07-09_campaignmonito..>2019-01-21 13:11 43K 
 07-10_drawardesign.jpg 2019-01-21 13:11 42K 
 07-11_fresh_web_desi..>2019-01-21 13:11 63K 
 08-01_seo_tips_remem..>2019-01-21 13:11 51K 
 08-02_flash_wisely.jpg 2018-12-20 13:02 15K 
 08-03_javascript_wis..>2018-12-20 13:02 8.7K 
 08-04_inundate_links..>2018-12-20 13:02 2.0K 
 08-05_sitemapsdotorg..>2018-12-20 13:02 27K 
 09-01_adftp_android_..>2018-12-20 13:02 31K 
 09-02_silveredit_and..>2018-12-20 13:02 42K 
 09-03_photoshop_andr..>2018-12-20 13:02 29K 
 09-04_view_websource..>2019-01-21 13:11 56K 
 09-05_mobile_ga_andr..>2018-12-20 13:02 26K 
 09-06_dropbox_androi..>2018-12-20 13:02 45K 
 09-07_wordpress2mobi..>2018-12-20 13:02 37K 
 09-08_thinkingspace_..>2018-12-20 13:02 22K 
 09-09_typography_jun..>2019-01-21 13:11 48K 
 09-10_htmltest_andro..>2019-01-21 13:11 50K 
 09-11_android_apps_w..>2018-12-20 13:02 23K 
 10-01_resources_road..>2018-12-20 13:02 45K 
 10-02_comphensive_gu..>2018-12-20 13:02 15K 
 10-03_starting_your_..>2018-12-20 13:02 23K 
 10-04_25_tips_succes..>2018-12-20 13:02 24K 
 10-05_wish_told_me_f..>2018-12-20 13:02 20K 
 10-06_freelancer_suc..>2018-12-20 13:02 25K 
 10-07_freelancers_ge..>2018-12-20 13:02 25K 
 10-08_stay_crative_e..>2018-12-20 13:02 19K 
 10-09_improve_freela..>2018-12-20 13:02 47K 
 10-10_tips_creative_..>2018-12-20 13:02 22K 
 10-11_must_read_book..>2018-12-20 13:02 44K 
 10-12_outofbox_creat..>2018-12-20 13:02 18K 
 10-13_freelancer_fre..>2018-12-20 13:02 30K 
 10-14_freelancer_wis..>2018-12-20 13:02 24K 
 10-15_tips_aspiring_..>2018-12-20 13:02 26K 
 10-16_beefup_freelan..>2018-12-20 13:02 31K 
 10-17_habits_profess..>2018-12-20 13:02 8.2K 
 10-18_deal_long_hour..>2018-12-20 13:02 38K 
 10-19_freelancers_dr..>2018-12-20 13:02 9.6K 
 10-20_spring_freelan..>2018-12-20 13:02 27K 
 10-21_freelancer_bur..>2018-12-20 13:02 17K 
 10-22_health_hazards..>2018-12-20 13:02 25K 
 10-23_havetoknow_bei..>2018-12-20 13:02 14K 
 10-24_freelance_job_..>2018-12-20 13:02 24K 
 10-25_best_job_board..>2019-01-21 13:11 43K 
 10-26_branding_yours..>2018-12-20 13:02 33K 
 10-27_marketing_rule..>2018-12-20 13:02 34K 
 10-28_guerrilla_mark..>2018-12-20 13:02 32K 
 10-29_dealing_differ..>2018-12-20 13:02 33K 
 10-30_breeds_client_..>2018-12-20 13:02 22K 
 10-31_local_clients_..>2019-01-21 13:11 42K 
 10-32_pc_apps_freela..>2018-12-20 13:02 22K 
 10-33_items_freelanc..>2018-12-20 13:02 13K 
 10-34_freelance_tool..>2018-12-20 13:02 34K 
 10-35_project_manage..>2018-12-20 13:02 30K 
 10-36_freelance_work..>2018-12-20 13:02 34K 
 10-37_freelancers_ma..>2018-12-20 13:02 14K 
 10-38_guarantee_faiu..>2018-12-20 13:02 26K 
 10-39_shouldnt_be_fr..>2018-12-20 13:02 23K 
 10-40_reasons_not_fr..>2018-12-20 13:02 43K 
 10-41_critical_mista..>2018-12-20 13:02 42K 
 11-01_simple_elegant..>2019-01-21 13:11 31K 
 11-02_final_result_p..>2019-01-21 13:11 46K 
 11-03_final_result_f..>2019-01-21 13:11 264K 
 11-04_clean_elegant_..>2018-12-20 13:02 13K 
 11-05_clean_elegant_..>2018-12-20 13:02 17K 
 11-06_clean_elegant_..>2018-12-20 13:02 16K 
 11-07_clean_elegant_..>2018-12-20 13:02 15K 
 11-08_clean_elegant_..>2018-12-20 13:02 14K 
 11-09_clean_elegant_..>2018-12-20 13:02 7.5K 
 11-10_clean_elegant_..>2018-12-20 13:02 9.5K 
 11-11_clean_elegant_..>2018-12-20 13:02 17K 
 11-12_clean_elegant_..>2018-12-20 13:02 13K 
 11-13_clean_elegant_..>2018-12-20 13:02 13K 
 11-14_clean_elegant_..>2018-12-20 13:02 17K 
 11-15_clean_elegant_..>2018-12-20 13:02 16K 
 11-16_clean_elegant_..>2018-12-20 13:02 15K 
 11-17_clean_elegant_..>2018-12-20 13:02 13K 
 11-18_clean_elegant_..>2018-12-20 13:02 13K 
 11-19_clean_elegant_..>2018-12-20 13:02 6.8K 
 11-20_clean_elegant_..>2018-12-20 13:02 17K 
 11-21_clean_elegant_..>2018-12-20 13:02 14K 
 11-22_clean_elegant_..>2018-12-20 13:02 14K 
 11-23_clean_elegant_..>2018-12-20 13:02 14K 
 11-24_clean_elegant_..>2018-12-20 13:02 12K 
 11-25_clean_elegant_..>2018-12-20 13:02 15K 
 11-26_clean_elegant_..>2018-12-20 13:02 19K 
 11-27_clean_elegant_..>2018-12-20 13:02 14K 
 11-28_clean_elegant_..>2018-12-20 13:02 32K 
 11-29_clean_elegant_..>2018-12-20 13:02 14K 
 11-30_clean_elegant_..>2019-01-21 13:11 59K 
 11-31_clean_elegant_..>2019-01-21 13:11 63K 
 11-32_clean_elegant_..>2018-12-20 13:02 12K 
 11-33_clean_elegant_..>2018-12-20 13:02 13K 
 11-34_clean_elegant_..>2018-12-20 13:02 13K 
 11-35_clean_elegant_..>2019-01-21 13:11 39K 
 11-36_clean_elegant_..>2018-12-20 13:02 19K 
 11-37_clean_elegant_..>2018-12-20 13:02 44K 
 11-38_clean_elegant_..>2018-12-20 13:02 16K 
 11-39_clean_elegant_..>2018-12-20 13:02 30K 
 11-40_clean_elegant_..>2018-12-20 13:02 13K 
 11-41_clean_elegant_..>2018-12-20 13:02 3.1K 
 11-42_clean_elegant_..>2018-12-20 13:02 31K 
 11-43_clean_elegant_..>2019-01-21 13:11 49K 
 12-01_alignmentexamp..>2018-12-20 13:02 5.3K 
 12-02_960website.jpg 2018-12-20 13:02 41K 
 12-03_12columngrid.jpg 2018-12-20 13:02 27K 
 12-04_16columngrid.jpg 2018-12-20 13:02 35K 
 12-05_classexample.jpg 2018-12-20 13:02 25K 
 12-06_threecolumnlay..>2018-12-20 13:02 6.2K 
 12-07_fourcolumnlayo..>2018-12-20 13:02 7.3K 
 12-08_pushpull.jpg 2018-12-20 13:02 23K 
 12-09_logoexample1.jpg 2018-12-20 13:02 10K 
 12-10_logoexample2.jpg 2018-12-20 13:02 11K 
 12-11_prefixsuffix.jpg 2018-12-20 13:02 11K 
 12-12_resource1.jpg 2018-12-20 13:02 31K 
 12-13_resource2.png 2018-12-20 13:02 29K 
 12-14_resource3.png 2018-12-20 13:02 16K 
 12-15_resource4.jpg 2018-12-20 13:02 36K 
 12-16_resource5.jpg 2018-12-20 13:02 32K 
 12-17_resource6.png 2018-12-20 13:02 22K 
 12-18_960gs_ld_img.jpg 2018-12-20 13:02 16K 
 13-01_wordpress_them..>2018-12-20 13:02 43K 
 13-02_hybrid.jpg 2018-12-20 13:02 27K 
 13-03_hybrid_demo.jpg 2018-12-20 13:02 12K 
 13-04_hybrid_widget.jpg2018-12-20 13:02 26K 
 13-05_themeshaper.jpg 2018-12-20 13:02 27K 
 13-06_thematic_demo.jpg2018-12-20 13:02 16K 
 13-07_canvas_demo.jpg 2018-12-20 13:02 26K 
 13-08_canvas_backend..>2018-12-20 13:02 28K 
 13-09_genesis_demo.jpg 2018-12-20 13:02 18K 
 13-10_genesis_theme_..>2018-12-20 13:02 31K 
 13-11_elemental.jpg 2018-12-20 13:02 19K 
 13-12_elemental_back..>2018-12-20 13:02 21K 
 13-13_options.jpg 2019-01-21 13:11 54K 
 14-01_vista_uf.jpg 2018-12-20 13:02 16K 
 14-02_mobile_constan..>2018-12-20 13:02 28K 
 14-03_segoeui.png 2018-12-20 13:02 9.1K 
 14-04_nyala1.png 2018-12-20 13:02 4.3K 
 14-05_cleartype_vs_s..>2018-12-20 13:02 7.7K 
 14-06_quartz_vs_clea..>2018-12-20 13:02 11K 
 14-07_site_cambria.png 2018-12-20 13:02 4.8K 
 14-08_brightcreative..>2018-12-20 13:02 11K 
 14-09_neosmart.png 2018-12-20 13:02 11K 
 14-10_msdnblog.png 2018-12-20 13:02 7.3K 
 14-11_msdnblog2.png 2018-12-20 13:02 5.2K 
 14-12_consolas.jpg 2018-12-20 13:02 9.2K 
 14-13_hitechy.png 2018-12-20 13:02 4.7K 
 14-14_ari.png 2018-12-20 13:02 4.7K 
 14-15_bully.png 2018-12-20 13:02 8.0K 
 14-16_vista_fonts_de..>2018-12-20 13:02 45K 
 14-17_add_calibri_vi..>2018-12-20 13:02 13K 
 15-01_nextdayflyers_..>2018-12-20 13:02 36K 
 15-02_nextdayflyers_..>2018-12-20 13:02 60K 
 16-01_html5_resource..>2018-12-20 13:02 21K 
 16-02_wtf_html_infog..>2018-12-20 13:02 37K 
 16-03_dive_html5.png 2018-12-20 13:02 10K 
 16-04_html5_doctor.png 2018-12-20 13:02 15K 
 16-05_wikipedia.png 2018-12-20 13:02 32K 
 16-06_html5_specs.png 2018-12-20 13:02 6.3K 
 16-07_html5_dev_guid..>2018-12-20 13:02 5.9K 
 16-08_html4_html5_di..>2018-12-20 13:02 5.9K 
 16-09_html5_website.png2018-12-20 13:02 14K 
 16-10_html_today.png 2018-12-20 13:02 4.7K 
 16-11_html5.jpg 2018-12-20 13:02 26K 
 16-12_html5_gallery.jpg2018-12-20 13:02 26K 
 16-13_html5_demos.png 2018-12-20 13:02 24K 
 16-14_when_caniuse.png 2018-12-20 13:02 8.7K 
 16-15_compatibility_..>2018-12-20 13:02 22K 
 16-16_html5_score.jpg 2018-12-20 13:02 12K 
 17-01_dont_be_design..>2018-12-20 13:02 17K 
 17-02_brush_tool_pho..>2018-12-20 13:02 27K 
 17-03_workspace_sixr..>2018-12-20 13:02 19K 
 17-04_computer_all_d..>2018-12-20 13:02 47K 
 18-01_site_analysis_..>2018-12-20 13:02 8.7K 
 18-02_keywordsbox.jpg 2018-12-20 13:02 8.8K 
 18-03_keywords_left_..>2018-12-20 13:02 6.2K 
 18-04_keywords_main_..>2018-12-20 13:02 28K 
 18-05_filter.jpg 2018-12-20 13:02 13K 
 18-06_site_search_se..>2018-12-20 13:02 11K 
 18-07_site_search.jpg 2018-12-20 13:02 25K 
 18-08_search_terms.jpg 2018-12-20 13:02 24K 
 18-09_usage.jpg 2018-12-20 13:02 8.2K 
 18-10_edit_profile.jpg 2018-12-20 13:02 18K 
 18-11_add_add_new_co..>2018-12-20 13:02 3.4K 
 18-12_add_add_filter..>2018-12-20 13:02 4.8K 
 18-13_add_detailed_b..>2018-12-20 13:02 18K 
 18-14_add_additional..>2018-12-20 13:02 16K 
 18-15_add_edit_profi..>2018-12-20 13:02 18K 
 18-16_add_edit_profi..>2018-12-20 13:02 33K 
 18-17_add_default_pl..>2018-12-20 13:02 4.1K 
 18-18_add_sort_bounc..>2018-12-20 13:02 14K 
 19-01_layout_methods..>2018-12-20 13:02 13K 
 19-02_absolute_layou..>2018-12-20 13:02 10K 
 19-03_relative_layou..>2018-12-20 13:02 36K 
 19-04_fixed_layout.png 2018-12-20 13:02 46K 
 19-05_elastic_layout..>2019-01-21 13:11 63K 
 19-06_scaled_layout.png2018-12-20 13:02 3.3K 
 19-07_liquid_layout.jpg2018-12-20 13:02 40K 
 19-08_equated_layout..>2018-12-20 13:02 23K 
 19-09_fuild_minmax_l..>2018-12-20 13:02 19K 
 19-10_conditional_la..>2018-12-20 13:02 17K 
 19-11_hybdized_layou..>2018-12-20 13:02 27K 
 19-12_big_picture.jpg 2018-12-20 13:02 29K 
 19-13_add_browser_vi..>2019-01-21 13:11 48K 
 19-14_add_iphone_ori..>2018-12-20 13:02 41K 
 19-15_layout_types_w..>2018-12-20 13:02 11K 
 20-01_ria_future_ld_..>2018-12-20 13:02 19K 
 20-02_ria_sumopaint.png2018-12-20 13:02 30K 
 21-01_tolerate_proje..>2018-12-20 13:02 24K 
 21-02_cheapskate_cli..>2018-12-20 13:02 24K 
 21-03_badname.jpg 2019-01-21 13:11 62K 
 21-04_bad_logo.png 2018-12-20 13:02 12K 
 22-01_making_money_t..>2018-12-20 13:02 21K 
 22-02_drive_book.jpg 2018-12-20 13:02 29K 
 23-01_nature_of_web.jpg2018-12-20 13:02 25K 
 23-02_zombie_browser..>2018-12-20 13:02 18K 
 23-03_zombie_browser..>2018-12-20 13:02 26K 
 23-04_zombie_tech.png 2018-12-20 13:02 4.4K 
 23-05_oldschool_mobi..>2018-12-20 13:02 27K 
 23-06_nasty_markup.png 2018-12-20 13:02 9.4K 
 23-07_zombie_code.png 2018-12-20 13:02 6.7K 
 23-08_zombie_design.jpg2018-12-20 13:02 48K 
 23-09_zombie_nasty_s..>2019-01-21 13:11 54K 
 23-10_standards_circ..>2018-12-20 13:02 30K 
 23-11_doa_standard.png 2018-12-20 13:02 14K 
 23-12_web_undead_ld_..>2018-12-20 13:02 41K 
 24-01_reductionism_v..>2018-12-20 13:02 6.0K 
 24-02_twitter_reduce..>2018-12-20 13:02 9.4K 
 24-03_boil_down.png 2018-12-20 13:02 9.0K 
 24-04_content_cut.png 2018-12-20 13:02 2.4K 
 24-05_image_cut.png 2018-12-20 13:02 28K 
 24-06_tagcloud.png 2018-12-20 13:02 5.4K 
 24-07_waffle.png 2018-12-20 13:02 29K 
 24-08_right_elements..>2018-12-20 13:02 27K 
 24-09_simple.jpg 2018-12-20 13:02 20K 
 24-10_web_excess.png 2018-12-20 13:02 29K 
 24-11_coda.png 2018-12-20 13:02 25K 
 24-12_web_design_red..>2018-12-20 13:02 9.6K 
 25-01_important_visi..>2018-12-20 13:02 17K 
 25-02_important_cont..>2018-12-20 13:02 25K 
 25-03_plaintext_docs..>2018-12-20 13:02 14K 
 25-04_noise.png 2018-12-20 13:02 29K 
 25-05_noise_interfac..>2018-12-20 13:02 33K 
 25-06_noisy_content.png2018-12-20 13:02 13K 
 25-07_ux_myths.png 2018-12-20 13:02 21K 
 25-08_easy_2_nav.jpg 2018-12-20 13:02 29K 
 25-09_conventions.png 2018-12-20 13:02 20K 
 25-10_dconstruct.jpg 2018-12-20 13:02 36K 
 25-11_relatable_word..>2018-12-20 13:02 14K 
 25-12_example_toolti..>2018-12-20 13:02 8.1K 
 25-13_color_contrast..>2018-12-20 13:02 49K 
 25-14_accessibility.png2018-12-20 13:02 11K 
 25-15_color.png 2018-12-20 13:02 26K 
 25-16_drawar.png 2018-12-20 13:02 7.2K 
 25-17_stylistic_trai..>2018-12-20 13:02 28K 
 25-18_sharp_group.jpg 2018-12-20 13:02 39K 
 25-19_graph_of_disti..>2018-12-20 13:02 9.5K 
 25-20_css_technique_..>2018-12-20 13:02 19K 
 25-21-moderation_key..>2018-12-20 13:02 23K 
 25-22_art_distinctio..>2018-12-20 13:02 22K 
 26-01_difficult_inte..>2018-12-20 13:02 18K 
 26-02_wordpress_dele..>2019-01-21 13:11 36K 
 26-03_wordpress_tras..>2018-12-20 13:02 27K 
 26-04_freshbooks_ui_..>2018-12-20 13:02 26K 
 26-05_word_menu.jpg 2018-12-20 13:02 27K 
 26-06_download_butto..>2018-12-20 13:02 5.4K 
 26-07_download_butto..>2018-12-20 13:02 12K 
 26-08_free_plan.png 2018-12-20 13:02 45K 
 27-01_site5.png 2018-12-20 13:02 37K 
 27-02_wistia.png 2018-12-20 13:02 30K 
 27-03_stackable.png 2018-12-20 13:02 19K 
 27-04_mailchimp.jpg 2018-12-20 13:02 43K 
 27-05_bigstock.jpg 2018-12-20 13:02 33K 
 27-06_kissinsights.jpg 2018-12-20 13:02 32K 
 27-07_verio.jpg 2019-01-21 13:11 43K 
 27-08_shutterstock.jpg 2018-12-20 13:02 36K 
 27-09_tophosts.png 2018-12-20 13:02 48K 
 27-10_remotetiger.jpg 2018-12-20 13:02 38K 
 27-11_sitegrinder.png 2018-12-20 13:02 36K 
 27-12_psd2html.jpg 2018-12-20 13:02 31K 
 27-13_formstack.jpg 2018-12-20 13:02 33K 
 27-14_themeforest.jpg 2018-12-20 13:02 37K 
 27-15_site247.png 2018-12-20 13:02 37K 
 27-16_worketc.jpg 2018-12-20 13:02 40K 
 27-17_econnect.png 2018-12-20 13:02 32K 
 27-18_freshbooks.png 2018-12-20 13:02 28K 
 27-19_sponsor_love_j..>2018-12-20 13:02 34K 
 28-01_unicode.jpg 2018-12-20 13:02 30K 
 28-02_utf_8.png 2018-12-20 13:02 29K 
 28-03_cultural_symbo..>2018-12-20 13:02 43K 
 28-04_color_new.png 2018-12-20 13:02 689  
 28-05_flash.jpg 2018-12-20 13:02 26K 
 28-06_text.jpg 2019-01-21 13:11 50K 
 28-07_localization.jpg 2018-12-20 13:02 34K 
 28-08_flexible_web_d..>2018-12-20 13:02 37K 
 28-09_old_web_logo.png 2018-12-20 13:02 26K 
 28-10_webdesigners_g..>2018-12-20 13:02 35K 
 29-01_design_by_comm..>2018-12-20 13:02 30K 
 29-02_design_committ..>2018-12-20 13:02 41K 
 29-03_concept_feedba..>2019-01-21 13:11 45K 
 30-01_css3_demo_expe..>2018-12-20 13:02 20K 
 30-02_css3_our_solar..>2018-12-20 13:02 32K 
 30-03_css3_flash_ads..>2018-12-20 13:02 37K 
 30-04_css3_kinetic_t..>2018-12-20 13:02 22K 
 30-05_css3-man.png 2018-12-20 13:02 27K 
 30-06_csse3_small_pl..>2018-12-20 13:02 12K 
 30-07_css3_anigma.png 2018-12-20 13:02 18K 
 30-08_music_player.png 2018-12-20 13:02 4.1K 
 30-09_css3_polaroids..>2018-12-20 13:02 45K 
 30-10_css3_vinyl.jpg 2018-12-20 13:02 47K 
 30-11_css3_animate_f..>2018-12-20 13:02 42K 
 31-01_virtual_assist..>2018-12-20 13:02 12K 
 31-02_ivaa_screensho..>2018-12-20 13:02 30K